Location: Asheville, NC
(35.6000°N, 82.5500°W)
Time: 10:38:32
(UTC-04:00)

BEESAT 3 - Pass Details

Date: 15 March 2018
Orbit: 499 x 517 km, 64.9° (Epoch: 18 June)

Event Time Altitude Azimuth Distance (km) Brightness Sun altitude
Rises 21:12:07 0° 262° (W) 2,623 ? -19.9°
Drops below altitude 10° 21:15:15 - 291° (WNW) 1,869 ? -20.5°
Maximum altitude 21:16:51 10° 314° (NW) 1,747 ? -20.8°
Sets 21:21:39 0° 6° (N) 2,641 ? -21.7°
